TimeCST,TemperatureF,Dew PointF,Humidity,Sea Level PressureIn,VisibilityMPH,Wind Direction,Wind SpeedMPH,Gust SpeedMPH,PrecipitationIn,Events,Conditions,WindDirDegrees,DateUTC
12:06 AM,69.8,69.8,100,29.90,2.5,South,6.9,-,N/A,,Overcast,180,2013-02-23 06:06:00
12:11 AM,69.8,69.8,100,29.90,2.0,SSW,11.5,-,N/A,,Overcast,200,2013-02-23 06:11:00
12:16 AM,69.8,69.8,100,29.90,3.0,SSW,13.8,20.7,N/A,,Overcast,200,2013-02-23 06:16:00
12:21 AM,69.8,69.8,100,29.90,5.0,South,13.8,20.7,N/A,,Overcast,190,2013-02-23 06:21:00
12:26 AM,69.8,69.8,100,29.89,5.0,South,12.7,-,N/A,,Overcast,190,2013-02-23 06:26:00
12:36 AM,69.8,69.8,100,29.89,6.0,SSW,13.8,-,N/A,,Overcast,200,2013-02-23 06:36:00
12:58 AM,70.2,69.8,99,29.89,5.0,SSW,11.5,19.6,N/A,,Overcast,210,2013-02-23 06:58:00
1:18 AM,69.8,69.8,100,29.88,10.0,SSW,11.5,-,N/A,,Overcast,210,2013-02-23 07:18:00
1:48 AM,69.8,69.8,100,29.86,10.0,SW,10.4,-,N/A,,Overcast,220,2013-02-23 07:48:00
1:58 AM,70.2,69.8,99,29.86,10.0,SSW,10.4,-,N/A,,Overcast,210,2013-02-23 07:58:00
2:08 AM,69.8,69.8,100,29.86,10.0,SW,11.5,19.6,N/A,,Overcast,220,2013-02-23 08:08:00
2:27 AM,69.8,69.8,100,29.86,9.0,SSW,10.4,-,N/A,Rain,Light Rain,210,2013-02-23 08:27:00
2:40 AM,69.8,69.8,100,29.86,10.0,WSW,9.2,19.6,N/A,,Overcast,240,2013-02-23 08:40:00
2:44 AM,69.8,69.8,100,29.86,10.0,SW,6.9,19.6,N/A,,Light Drizzle,230,2013-02-23 08:44:00
2:54 AM,71.6,69.8,94,29.86,10.0,SW,9.2,-,N/A,,Overcast,230,2013-02-23 08:54:00
2:58 AM,71.6,69.8,94,29.86,10.0,SW,11.5,-,0.00,,Overcast,230,2013-02-23 08:58:00
3:03 AM,71.6,69.8,94,29.86,10.0,SW,8.1,-,N/A,,Overcast,220,2013-02-23 09:03:00
3:12 AM,69.8,69.8,100,29.85,8.0,SW,8.1,-,N/A,Rain,Light Rain,230,2013-02-23 09:12:00
3:32 AM,69.8,69.8,100,29.85,8.0,SW,5.8,-,N/A,Rain,Light Rain,220,2013-02-23 09:32:00
3:42 AM,71.6,69.8,94,29.85,3.0,SSW,8.1,-,N/A,Rain,Rain,200,2013-02-23 09:42:00
3:52 AM,69.8,69.8,100,29.85,3.0,SW,10.4,-,N/A,Rain,Heavy Rain,220,2013-02-23 09:52:00
3:58 AM,70.2,69.8,99,29.85,3.0,South,11.5,-,0.15,Rain-Thunderstorm,Light Rain,190,2013-02-23 09:58:00
4:09 AM,69.8,69.8,100,29.85,10.0,SW,6.9,-,N/A,Thunderstorm,Overcast,220,2013-02-23 10:09:00
4:24 AM,69.8,69.8,100,29.85,10.0,SW,10.4,-,N/A,,Mostly Cloudy,220,2013-02-23 10:24:00
4:27 AM,69.8,69.8,100,29.85,10.0,SSW,9.2,-,N/A,,Light Drizzle,210,2013-02-23 10:27:00
4:42 AM,69.8,69.8,100,29.85,10.0,SW,9.2,-,N/A,,Light Drizzle,230,2013-02-23 10:42:00
4:47 AM,69.8,69.8,100,29.86,10.0,SW,8.1,-,N/A,,Mostly Cloudy,230,2013-02-23 10:47:00
4:58 AM,70.7,70.3,99,29.86,10.0,SW,9.2,-,0.02,,Overcast,220,2013-02-23 10:58:00
5:06 AM,71.6,69.8,94,29.86,10.0,SSW,9.2,-,N/A,Rain,Light Rain,210,2013-02-23 11:06:00
5:18 AM,69.8,69.8,100,29.86,10.0,SW,6.9,-,N/A,,Overcast,230,2013-02-23 11:18:00
5:23 AM,69.8,69.8,100,29.86,10.0,SW,6.9,-,N/A,Rain,Light Rain,220,2013-02-23 11:23:00
5:38 AM,69.8,69.8,100,29.86,2.0,SSW,8.1,-,N/A,Rain,Heavy Rain,200,2013-02-23 11:38:00
5:43 AM,69.8,69.8,100,29.85,1.8,SSW,5.8,-,N/A,Rain,Heavy Rain,210,2013-02-23 11:43:00
5:48 AM,69.8,69.8,100,29.86,2.5,West,9.2,-,N/A,Rain,Light Rain,260,2013-02-23 11:48:00
5:53 AM,69.8,69.8,100,29.86,8.0,WSW,9.2,-,N/A,Rain,Light Rain,250,2013-02-23 11:53:00
5:58 AM,70.2,69.8,99,29.87,9.0,West,9.2,-,0.19,Rain,Light Rain,260,2013-02-23 11:58:00
6:03 AM,69.8,69.8,100,29.87,4.0,NW,13.8,18.4,N/A,Rain,Light Rain,310,2013-02-23 12:03:00
6:06 AM,68.0,68.0,100,29.87,3.0,NNW,13.8,18.4,N/A,Rain,Light Rain,330,2013-02-23 12:06:00
6:16 AM,64.4,62.6,94,29.88,5.0,NNW,10.4,-,N/A,Rain,Light Rain,330,2013-02-23 12:16:00
6:26 AM,62.6,62.6,100,29.88,9.0,NW,6.9,-,N/A,Rain,Light Rain,320,2013-02-23 12:26:00
6:36 AM,62.6,62.6,100,29.88,10.0,NW,4.6,-,N/A,,Light Drizzle,310,2013-02-23 12:36:00
6:38 AM,62.6,62.6,100,29.88,10.0,NW,5.8,-,N/A,,Mostly Cloudy,320,2013-02-23 12:38:00
6:43 AM,62.6,60.8,94,29.88,10.0,NW,4.6,-,N/A,,Mostly Cloudy,320,2013-02-23 12:43:00
6:58 AM,62.6,60.8,94,29.89,10.0,North,4.6,-,0.12,,Overcast,360,2013-02-23 12:58:00
7:18 AM,60.8,60.8,100,29.89,10.0,North,5.8,-,N/A,,Overcast,350,2013-02-23 13:18:00
7:29 AM,60.8,60.8,100,29.90,10.0,NNW,8.1,-,N/A,,Light Drizzle,330,2013-02-23 13:29:00
7:49 AM,60.8,60.8,100,29.91,4.0,NNW,8.1,-,N/A,Rain,Heavy Rain,340,2013-02-23 13:49:00
7:58 AM,60.6,60.3,99,29.91,4.0,NNW,6.9,-,0.05,Rain,Light Rain,340,2013-02-23 13:58:00
8:03 AM,60.8,60.8,100,29.91,10.0,North,5.8,-,N/A,Rain,Light Rain,350,2013-02-23 14:03:00
8:04 AM,60.8,60.8,100,29.91,10.0,Variable,4.6,-,N/A,,Mostly Cloudy,0,2013-02-23 14:04:00
8:12 AM,60.8,60.8,100,29.91,10.0,NNW,2.3,-,N/A,Rain,Light Rain,330,2013-02-23 14:12:00
8:22 AM,60.8,60.8,100,29.91,2.0,NNW,1.2,-,N/A,Rain,Heavy Rain,340,2013-02-23 14:22:00
8:27 AM,60.8,60.8,100,29.91,1.2,Calm,Calm,-,N/A,Rain,Heavy Rain,350,2013-02-23 14:27:00
8:32 AM,60.8,60.8,100,29.93,1.0,WSW,2.3,-,N/A,Rain,Heavy Rain,240,2013-02-23 14:32:00
8:37 AM,60.8,60.8,100,29.93,0.5,NW,5.8,-,N/A,Fog-Rain,Heavy Rain,310,2013-02-23 14:37:00
8:45 AM,60.8,60.8,100,29.93,0.8,NW,8.1,-,N/A,Rain,Heavy Rain,320,2013-02-23 14:45:00
8:50 AM,60.8,60.8,100,29.92,1.8,Variable,1.2,-,N/A,Rain,Heavy Rain,0,2013-02-23 14:50:00
8:55 AM,60.8,60.8,100,29.92,2.0,Calm,Calm,-,N/A,Rain,Rain,350,2013-02-23 14:55:00
8:58 AM,60.8,60.8,100,29.92,2.5,Calm,Calm,-,0.39,Rain,Light Rain,360,2013-02-23 14:58:00
9:03 AM,60.8,60.8,100,29.92,10.0,East,1.2,-,N/A,,Light Drizzle,80,2013-02-23 15:03:00
9:14 AM,60.8,60.8,100,29.91,10.0,Calm,Calm,-,N/A,,Scattered Clouds,360,2013-02-23 15:14:00
9:30 AM,62.6,62.6,100,29.90,10.0,SSE,8.1,-,N/A,,Partly Cloudy,160,2013-02-23 15:30:00
9:50 AM,62.6,62.6,100,29.89,10.0,SSE,6.9,-,N/A,,Mostly Cloudy,150,2013-02-23 15:50:00
9:58 AM,63.0,63.0,100,29.90,10.0,SW,2.3,-,0.00,,Mostly Cloudy,220,2013-02-23 15:58:00
10:02 AM,62.6,62.6,100,29.91,10.0,West,3.5,-,N/A,Rain,Light Rain,260,2013-02-23 16:02:00
10:07 AM,62.6,62.6,100,29.90,10.0,Variable,3.5,-,N/A,Rain,Light Rain,0,2013-02-23 16:07:00
10:16 AM,64.4,64.4,100,29.90,10.0,NNW,3.5,-,N/A,,Mostly Cloudy,330,2013-02-23 16:16:00
10:21 AM,64.4,64.4,100,29.89,10.0,North,5.8,-,N/A,,Mostly Cloudy,350,2013-02-23 16:21:00
10:31 AM,64.4,64.4,100,29.91,10.0,NNW,6.9,-,N/A,,Mostly Cloudy,340,2013-02-23 16:31:00
10:58 AM,62.6,62.6,100,29.91,10.0,North,4.6,-,0.00,,Overcast,10,2013-02-23 16:58:00
11:11 AM,62.6,62.6,100,29.90,10.0,North,3.5,-,N/A,,Light Drizzle,350,2013-02-23 17:11:00
11:20 AM,62.6,62.6,100,29.90,10.0,Variable,1.2,-,N/A,,Mostly Cloudy,0,2013-02-23 17:20:00
11:25 AM,62.6,62.6,100,29.89,10.0,North,1.2,-,N/A,,Scattered Clouds,360,2013-02-23 17:25:00
11:35 AM,62.6,62.6,100,29.89,10.0,NNE,3.5,-,N/A,,Mostly Cloudy,30,2013-02-23 17:35:00
11:58 AM,63.1,63.1,100,29.88,10.0,North,5.8,-,0.00,,Overcast,10,2013-02-23 17:58:00
12:08 PM,62.6,62.6,100,29.89,10.0,North,3.5,-,N/A,,Overcast,360,2013-02-23 18:08:00
12:32 PM,62.6,62.6,100,29.88,10.0,NNW,2.3,-,N/A,,Mostly Cloudy,340,2013-02-23 18:32:00
12:49 PM,62.6,62.6,100,29.88,10.0,NW,6.9,-,N/A,Rain,Light Rain,320,2013-02-23 18:49:00
12:58 PM,63.1,63.0,99,29.88,10.0,NNW,6.9,-,0.00,,Light Drizzle,340,2013-02-23 18:58:00
1:00 PM,62.6,62.6,100,29.87,10.0,North,4.6,-,N/A,,Mostly Cloudy,350,2013-02-23 19:00:00
1:34 PM,62.6,60.8,94,29.86,10.0,NNW,9.2,-,N/A,,Overcast,340,2013-02-23 19:34:00
1:58 PM,60.6,60.1,98,29.86,10.0,North,8.1,-,0.00,,Overcast,350,2013-02-23 19:58:00
2:53 PM,59.0,59.0,100,29.86,9.0,North,5.8,-,N/A,Rain,Light Rain,10,2013-02-23 20:53:00
2:58 PM,59.4,58.5,97,29.86,8.0,North,6.9,-,0.01,Rain,Light Rain,10,2013-02-23 20:58:00
3:09 PM,59.0,59.0,100,29.86,10.0,North,4.6,-,N/A,,Overcast,10,2013-02-23 21:09:00
3:43 PM,59.0,59.0,100,29.92,10.0,WNW,6.9,-,N/A,,Light Drizzle,300,2013-02-23 21:43:00
3:58 PM,58.6,58.3,99,29.91,10.0,NW,4.6,-,0.00,Rain,Light Rain,310,2013-02-23 21:58:00
4:18 PM,59.0,57.2,94,29.89,9.0,North,2.3,-,N/A,Rain,Light Rain,10,2013-02-23 22:18:00
4:29 PM,57.2,57.2,100,29.87,10.0,NE,4.6,-,N/A,,Overcast,50,2013-02-23 22:29:00
4:31 PM,57.2,57.2,100,29.86,10.0,NE,4.6,-,N/A,,Light Drizzle,40,2013-02-23 22:31:00
4:41 PM,57.2,57.2,100,29.86,10.0,NE,5.8,-,N/A,,Light Drizzle,40,2013-02-23 22:41:00
4:44 PM,57.2,57.2,100,29.84,10.0,ENE,6.9,-,N/A,Rain,Light Rain,70,2013-02-23 22:44:00
4:58 PM,57.7,57.4,99,29.82,7.0,NE,5.8,-,0.05,Rain,Light Rain,40,2013-02-23 22:58:00
5:03 PM,57.2,57.2,100,29.79,10.0,East,10.4,-,N/A,Rain,Light Rain,80,2013-02-23 23:03:00
5:18 PM,57.2,57.2,100,29.79,10.0,East,6.9,-,N/A,,Light Drizzle,90,2013-02-23 23:18:00
5:19 PM,57.2,57.2,100,29.80,10.0,East,6.9,-,N/A,,Mostly Cloudy,90,2013-02-23 23:19:00
5:25 PM,57.2,57.2,100,29.80,10.0,East,6.9,-,N/A,Rain,Light Rain,80,2013-02-23 23:25:00
5:35 PM,57.2,57.2,100,29.81,10.0,East,3.5,-,N/A,Rain,Light Rain,90,2013-02-23 23:35:00
5:45 PM,57.2,57.2,100,29.82,10.0,North,3.5,-,N/A,,Scattered Clouds,350,2013-02-23 23:45:00
5:55 PM,57.2,57.2,100,29.82,10.0,North,1.2,-,N/A,,Mostly Cloudy,10,2013-02-23 23:55:00
5:56 PM,57.2,57.2,100,29.83,10.0,North,1.2,-,N/A,Rain,Light Rain,10,2013-02-23 23:56:00
5:58 PM,57.2,57.2,100,29.83,10.0,North,1.2,-,0.00,Rain,Light Rain,10,2013-02-23 23:58:00
6:03 PM,57.2,57.2,100,29.82,10.0,NNE,2.3,-,N/A,Rain,Light Rain,30,2013-02-24 00:03:00
6:22 PM,57.2,57.2,100,29.85,10.0,NW,6.9,-,N/A,,Overcast,320,2013-02-24 00:22:00
6:27 PM,57.2,57.2,100,29.85,10.0,WNW,2.3,-,N/A,,Overcast,300,2013-02-24 00:27:00
6:37 PM,57.2,57.2,100,29.84,10.0,North,-9999.0,-,N/A,,Overcast,0,2013-02-24 00:37:00
6:58 PM,57.9,57.6,99,29.85,10.0,NW,5.8,-,0.01,,Overcast,320,2013-02-24 00:58:00
7:23 PM,57.2,57.2,100,29.89,10.0,NW,10.4,-,N/A,,Overcast,310,2013-02-24 01:23:00
7:48 PM,57.2,57.2,100,29.90,10.0,NW,8.1,-,N/A,,Overcast,320,2013-02-24 01:48:00
7:58 PM,57.2,56.8,99,29.91,10.0,NNW,10.4,-,N/A,,Overcast,330,2013-02-24 01:58:00
8:03 PM,57.2,57.2,100,29.89,10.0,NNW,9.2,-,N/A,,Overcast,330,2013-02-24 02:03:00
8:18 PM,57.2,57.2,100,29.91,10.0,NW,8.1,-,N/A,,Overcast,320,2013-02-24 02:18:00
8:48 PM,57.2,57.2,100,29.92,10.0,NNW,8.1,-,N/A,,Overcast,330,2013-02-24 02:48:00
8:58 PM,56.5,56.1,99,29.91,10.0,NNW,10.4,-,N/A,,Overcast,330,2013-02-24 02:58:00
9:08 PM,55.4,55.4,100,29.92,10.0,NW,8.1,-,N/A,,Overcast,320,2013-02-24 03:08:00
9:28 PM,55.4,55.4,100,29.93,10.0,NNW,4.6,-,N/A,,Overcast,330,2013-02-24 03:28:00
9:58 PM,56.3,55.9,99,29.95,10.0,NW,3.5,-,N/A,,Overcast,320,2013-02-24 03:58:00
11:13 PM,57.2,55.4,94,29.95,10.0,North,4.6,-,N/A,,Overcast,360,2013-02-24 05:13:00
11:58 PM,55.4,55.4,100,29.95,10.0,North,6.9,-,N/A,,Mostly Cloudy,350,2013-02-24 05:58:00